Location: Tamazert
(32.6352°N, 5.2072°W)
Time: 23:07:03
(UTC+00:00)

YAOGAN 6 - Pass Details

Date: 22 May 2022
Orbit: 460 x 493 km, 97.1° (Epoch: 24 June)

Event Time Altitude Azimuth Distance (km) Brightness Sun altitude
Rises 04:29:07 0° 18° (NNE) 2,539 7.1 -9.9°
Reaches altitude 10° 04:31:14 10° 25° (NNE) 1,662 6.2 -9.5°
Maximum altitude 04:34:40 44° 99° (E) 681 3.7 -8.9°
Drops below altitude 10° 04:38:07 10° 172° (S) 1,667 5.1 -8.3°
Sets 04:40:15 0° 179° (S) 2,549 5.9 -7.9°
